Time,TemperatureF,DewpointF,PressureIn,WindDirection,WindDirectionDegrees,WindSpeedMPH,WindSpeedGustMPH,Humidity,HourlyPrecipIn,Conditions,Clouds,dailyrainin,SoftwareType,DateUTC
2013-02-12 00:03:00,44.0,44.0,30.18,SW,231,15.0,17.0,100,0.00,,,0.00,weatherlink.com 1.10,2013-02-12 08:03:00,
2013-02-12 00:18:00,44.1,44.0,30.19,WSW,245,12.0,15.0,100,0.00,,,0.00,weatherlink.com 1.10,2013-02-12 08:18:00,
2013-02-12 00:33:00,43.9,44.0,30.19,WSW,238,13.0,15.0,100,0.00,,,0.00,weatherlink.com 1.10,2013-02-12 08:33:00,
2013-02-12 00:48:00,43.7,44.0,30.18,SW,229,16.0,16.0,100,0.00,,,0.00,weatherlink.com 1.10,2013-02-12 08:48:00,
2013-02-12 01:03:00,43.6,44.0,30.19,SW,236,13.0,16.0,100,0.00,,,0.00,weatherlink.com 1.10,2013-02-12 09:03:00,
2013-02-12 01:18:00,43.6,44.0,30.19,WSW,238,14.0,15.0,100,0.00,,,0.00,weatherlink.com 1.10,2013-02-12 09:18:00,
2013-02-12 01:34:00,43.5,44.0,30.19,WSW,245,13.0,13.0,100,0.00,,,0.00,weatherlink.com 1.10,2013-02-12 09:34:00,
2013-02-12 01:49:00,43.4,43.0,30.20,SW,236,12.0,14.0,100,0.00,,,0.00,weatherlink.com 1.10,2013-02-12 09:49:00,
2013-02-12 02:04:00,43.5,44.0,30.20,SW,236,10.0,13.0,100,0.00,,,0.00,weatherlink.com 1.10,2013-02-12 10:04:00,
2013-02-12 02:19:00,43.3,43.0,30.20,SW,235,7.0,10.0,100,0.00,,,0.00,weatherlink.com 1.10,2013-02-12 10:19:00,
2013-02-12 02:34:00,43.0,43.0,30.20,WSW,243,3.0,8.0,100,0.00,,,0.00,weatherlink.com 1.10,2013-02-12 10:34:00,
2013-02-12 02:49:00,42.6,43.0,30.21,SW,235,4.0,5.0,100,0.00,,,0.00,weatherlink.com 1.10,2013-02-12 10:49:00,
2013-02-12 03:04:00,42.7,43.0,30.20,SW,231,6.0,7.0,100,0.00,,,0.00,weatherlink.com 1.10,2013-02-12 11:04:00,
2013-02-12 03:19:00,42.6,43.0,30.21,WSW,239,6.0,6.0,100,0.00,,,0.00,weatherlink.com 1.10,2013-02-12 11:19:00,
2013-02-12 03:34:00,42.6,43.0,30.21,SSW,203,2.0,6.0,100,0.00,,,0.00,weatherlink.com 1.10,2013-02-12 11:34:00,
2013-02-12 03:49:00,43.1,43.0,30.21,SW,219,3.0,6.0,100,0.00,,,0.00,weatherlink.com 1.10,2013-02-12 11:49:00,
2013-02-12 04:04:00,42.8,43.0,30.21,SW,231,6.0,6.0,100,0.00,,,0.00,weatherlink.com 1.10,2013-02-12 12:04:00,
2013-02-12 04:19:00,43.0,43.0,30.22,SW,229,5.0,6.0,100,0.00,,,0.00,weatherlink.com 1.10,2013-02-12 12:19:00,
2013-02-12 04:34:00,43.0,43.0,30.21,SW,228,7.0,8.0,100,0.00,,,0.00,weatherlink.com 1.10,2013-02-12 12:34:00,
2013-02-12 04:49:00,43.1,43.0,30.22,SSW,210,4.0,7.0,100,0.00,,,0.00,weatherlink.com 1.10,2013-02-12 12:49:00,
2013-02-12 05:04:00,43.1,43.0,30.22,SW,224,6.0,7.0,100,0.00,,,0.00,weatherlink.com 1.10,2013-02-12 13:04:00,
2013-02-12 05:19:00,43.1,43.0,30.23,SW,221,5.0,6.0,100,0.00,,,0.00,weatherlink.com 1.10,2013-02-12 13:19:00,
2013-02-12 05:34:00,43.0,43.0,30.23,WSW,238,5.0,7.0,100,0.00,,,0.00,weatherlink.com 1.10,2013-02-12 13:34:00,
2013-02-12 05:49:00,43.1,43.0,30.24,SW,225,4.0,6.0,100,0.00,,,0.00,weatherlink.com 1.10,2013-02-12 13:49:00,
2013-02-12 06:04:00,43.2,43.0,30.25,SW,228,2.0,4.0,100,0.00,,,0.00,weatherlink.com 1.10,2013-02-12 14:04:00,
2013-02-12 06:19:00,43.2,43.0,30.25,WSW,250,4.0,6.0,100,0.00,,,0.00,weatherlink.com 1.10,2013-02-12 14:19:00,
2013-02-12 06:34:00,43.0,43.0,30.26,SSW,212,3.0,5.0,100,0.00,,,0.00,weatherlink.com 1.10,2013-02-12 14:34:00,
2013-02-12 06:49:00,43.1,43.0,30.26,WSW,240,1.0,3.0,100,0.00,,,0.00,weatherlink.com 1.10,2013-02-12 14:49:00,
2013-02-12 07:04:00,42.4,42.0,30.27,SE,142,0.0,1.0,100,0.00,,,0.00,weatherlink.com 1.10,2013-02-12 15:04:00,
2013-02-12 07:19:00,42.2,42.0,30.27,East,101,2.0,3.0,100,0.00,,,0.00,weatherlink.com 1.10,2013-02-12 15:19:00,
2013-02-12 07:34:00,42.5,43.0,30.28,ENE,58,4.0,4.0,100,0.00,,,0.00,weatherlink.com 1.10,2013-02-12 15:34:00,
2013-02-12 07:49:00,42.7,43.0,30.29,NE,46,4.0,5.0,100,0.00,,,0.00,weatherlink.com 1.10,2013-02-12 15:49:00,
2013-02-12 08:04:00,42.8,43.0,30.29,East,79,3.0,4.0,100,0.01,,,0.01,weatherlink.com 1.10,2013-02-12 16:04:00,
2013-02-12 08:19:00,42.7,43.0,30.30,NE,42,7.0,8.0,100,0.01,,,0.01,weatherlink.com 1.10,2013-02-12 16:19:00,
2013-02-12 08:34:00,42.5,43.0,30.30,NE,54,6.0,9.0,100,0.01,,,0.01,weatherlink.com 1.10,2013-02-12 16:34:00,
2013-02-12 08:49:00,42.4,42.0,30.31,NNE,13,11.0,11.0,100,0.01,,,0.01,weatherlink.com 1.10,2013-02-12 16:49:00,
2013-02-12 09:04:00,43.0,43.0,30.31,NNE,24,10.0,11.0,100,0.00,,,0.01,weatherlink.com 1.10,2013-02-12 17:04:00,
2013-02-12 09:20:00,43.0,43.0,30.32,NE,37,11.0,12.0,100,0.00,,,0.01,weatherlink.com 1.10,2013-02-12 17:20:00,
2013-02-12 09:35:00,43.1,43.0,30.31,NE,54,9.0,12.0,100,0.00,,,0.01,weatherlink.com 1.10,2013-02-12 17:35:00,
2013-02-12 09:50:00,43.1,43.0,30.32,NE,43,10.0,12.0,100,0.00,,,0.01,weatherlink.com 1.10,2013-02-12 17:50:00,
2013-02-12 10:05:00,43.6,44.0,30.32,ENE,77,7.0,11.0,100,0.00,,,0.01,weatherlink.com 1.10,2013-02-12 18:05:00,
2013-02-12 10:20:00,44.3,44.0,30.31,NE,37,9.0,11.0,100,0.00,,,0.01,weatherlink.com 1.10,2013-02-12 18:20:00,
2013-02-12 10:35:00,44.3,44.0,30.32,NNE,32,8.0,13.0,100,0.00,,,0.01,weatherlink.com 1.10,2013-02-12 18:35:00,
2013-02-12 10:50:00,44.4,44.0,30.32,ENE,60,8.0,14.0,100,0.00,,,0.01,weatherlink.com 1.10,2013-02-12 18:50:00,
2013-02-12 11:05:00,45.4,45.0,30.32,NE,56,8.0,12.0,100,0.00,,,0.01,weatherlink.com 1.10,2013-02-12 19:05:00,
2013-02-12 11:20:00,46.9,46.0,30.32,NNE,18,10.0,11.0,96,0.00,,,0.01,weatherlink.com 1.10,2013-02-12 19:20:00,
2013-02-12 11:35:00,47.5,45.0,30.32,NE,44,6.0,11.0,90,0.00,,,0.01,weatherlink.com 1.10,2013-02-12 19:35:00,
2013-02-12 11:50:00,48.0,43.0,30.32,NE,37,8.0,11.0,82,0.00,,,0.01,weatherlink.com 1.10,2013-02-12 19:50:00,
2013-02-12 12:05:00,48.9,42.0,30.32,NNE,30,7.0,10.0,78,0.00,,,0.01,weatherlink.com 1.10,2013-02-12 20:05:00,
2013-02-12 12:20:00,50.1,42.0,30.31,NE,40,5.0,6.0,73,0.00,,,0.01,weatherlink.com 1.10,2013-02-12 20:20:00,
2013-02-12 12:35:00,50.5,40.0,30.31,NE,36,6.0,7.0,67,0.00,,,0.01,weatherlink.com 1.10,2013-02-12 20:35:00,
2013-02-12 12:50:00,51.2,39.0,30.31,NNE,19,7.0,8.0,64,0.00,,,0.01,weatherlink.com 1.10,2013-02-12 20:50:00,
2013-02-12 13:05:00,52.2,39.0,30.30,NE,40,3.0,7.0,62,0.00,,,0.01,weatherlink.com 1.10,2013-02-12 21:05:00,
2013-02-12 13:20:00,53.2,40.0,30.30,NNE,30,0.0,6.0,61,0.00,,,0.01,weatherlink.com 1.10,2013-02-12 21:20:00,
2013-02-12 13:35:00,53.8,38.0,30.30,NNE,22,2.0,4.0,55,0.00,,,0.01,weatherlink.com 1.10,2013-02-12 21:35:00,
2013-02-12 13:50:00,54.9,44.0,30.30,WSW,238,3.0,6.0,67,0.00,,,0.01,weatherlink.com 1.10,2013-02-12 21:50:00,
2013-02-12 14:06:00,53.2,46.0,30.29,SSW,210,7.0,9.0,76,0.00,,,0.01,weatherlink.com 1.10,2013-02-12 22:06:00,
2013-02-12 14:21:00,52.5,45.0,30.29,WSW,246,3.0,11.0,76,0.00,,,0.01,weatherlink.com 1.10,2013-02-12 22:21:00,
2013-02-12 14:36:00,51.6,46.0,30.29,SW,219,9.0,12.0,81,0.00,,,0.01,weatherlink.com 1.10,2013-02-12 22:36:00,
2013-02-12 14:51:00,51.2,46.0,30.29,WSW,240,6.0,11.0,82,0.00,,,0.01,weatherlink.com 1.10,2013-02-12 22:51:00,
2013-02-12 15:06:00,51.5,47.0,30.29,SW,224,10.0,11.0,84,0.00,,,0.01,weatherlink.com 1.10,2013-02-12 23:06:00,
2013-02-12 15:21:00,50.8,46.0,30.28,SW,224,10.0,10.0,84,0.00,,,0.01,weatherlink.com 1.10,2013-02-12 23:21:00,
2013-02-12 15:36:00,50.8,46.0,30.28,SW,231,10.0,10.0,83,0.00,,,0.01,weatherlink.com 1.10,2013-02-12 23:36:00,
2013-02-12 15:51:00,50.3,46.0,30.28,WSW,257,7.0,9.0,84,0.00,,,0.01,weatherlink.com 1.10,2013-02-12 23:51:00,
2013-02-12 16:06:00,51.3,47.0,30.28,SW,219,5.0,7.0,84,0.00,,,0.01,weatherlink.com 1.10,2013-02-13 00:06:00,
2013-02-12 16:21:00,50.1,46.0,30.28,WSW,238,4.0,8.0,85,0.00,,,0.01,weatherlink.com 1.10,2013-02-13 00:21:00,
2013-02-12 16:36:00,49.5,46.0,30.27,SW,229,8.0,11.0,88,0.00,,,0.01,weatherlink.com 1.10,2013-02-13 00:36:00,
2013-02-12 16:51:00,48.9,46.0,30.27,WSW,242,10.0,10.0,90,0.00,,,0.01,weatherlink.com 1.10,2013-02-13 00:51:00,
2013-02-12 17:06:00,48.2,46.0,30.27,WSW,239,8.0,9.0,93,0.00,,,0.01,weatherlink.com 1.10,2013-02-13 01:06:00,
2013-02-12 17:21:00,47.6,46.0,30.28,WSW,249,6.0,7.0,94,0.00,,,0.01,weatherlink.com 1.10,2013-02-13 01:21:00,
2013-02-12 17:36:00,47.6,46.0,30.28,WSW,250,4.0,5.0,93,0.00,,,0.01,weatherlink.com 1.10,2013-02-13 01:36:00,
2013-02-12 17:51:00,48.1,44.0,30.28,WSW,252,4.0,4.0,85,0.00,,,0.01,weatherlink.com 1.10,2013-02-13 01:51:00,
2013-02-12 18:06:00,48.8,42.0,30.28,West,263,4.0,5.0,78,0.00,,,0.01,weatherlink.com 1.10,2013-02-13 02:06:00,
2013-02-12 18:21:00,50.1,41.0,30.28,West,270,0.0,5.0,71,0.00,,,0.01,weatherlink.com 1.10,2013-02-13 02:21:00,
2013-02-12 18:36:00,51.1,42.0,30.28,West,270,2.0,4.0,71,0.00,,,0.01,weatherlink.com 1.10,2013-02-13 02:36:00,
2013-02-12 18:51:00,50.8,43.0,30.28,West,267,2.0,4.0,74,0.00,,,0.01,weatherlink.com 1.10,2013-02-13 02:51:00,
2013-02-12 19:06:00,51.4,37.0,30.28,North,350,5.0,6.0,59,0.00,,,0.01,weatherlink.com 1.10,2013-02-13 03:06:00,
2013-02-12 19:21:00,51.9,37.0,30.28,NW,325,3.0,5.0,58,0.00,,,0.01,weatherlink.com 1.10,2013-02-13 03:21:00,
2013-02-12 19:36:00,52.3,36.0,30.29,NNW,340,3.0,6.0,55,0.00,,,0.01,weatherlink.com 1.10,2013-02-13 03:36:00,
2013-02-12 19:52:00,52.3,38.0,30.29,WNW,291,2.0,7.0,58,0.00,,,0.01,weatherlink.com 1.10,2013-02-13 03:52:00,
2013-02-12 20:06:00,52.2,40.0,30.29,NE,34,2.0,5.0,63,0.00,,,0.01,weatherlink.com 1.10,2013-02-13 04:06:00,
2013-02-12 20:21:00,51.9,41.0,30.29,North,352,4.0,5.0,67,0.00,,,0.01,weatherlink.com 1.10,2013-02-13 04:21:00,
2013-02-12 20:36:00,51.7,41.0,30.29,NNW,343,3.0,5.0,67,0.00,,,0.01,weatherlink.com 1.10,2013-02-13 04:36:00,
2013-02-12 20:51:00,51.9,41.0,30.29,NNW,346,3.0,5.0,66,0.00,,,0.01,weatherlink.com 1.10,2013-02-13 04:51:00,
2013-02-12 21:06:00,51.8,41.0,30.30,NNW,333,1.0,3.0,67,0.00,,,0.01,weatherlink.com 1.10,2013-02-13 05:06:00,
2013-02-12 21:21:00,51.9,40.0,30.30,NW,321,3.0,3.0,63,0.00,,,0.01,weatherlink.com 1.10,2013-02-13 05:21:00,
2013-02-12 21:36:00,51.9,40.0,30.30,NW,314,2.0,3.0,63,0.00,,,0.01,weatherlink.com 1.10,2013-02-13 05:36:00,
2013-02-12 21:51:00,52.3,39.0,30.30,NNW,330,2.0,4.0,61,0.00,,,0.01,weatherlink.com 1.10,2013-02-13 05:51:00,
2013-02-12 22:06:00,52.7,38.0,30.30,WNW,302,2.0,4.0,57,0.00,,,0.01,weatherlink.com 1.10,2013-02-13 06:06:00,
2013-02-12 22:21:00,51.0,40.0,30.30,West,262,4.0,4.0,67,0.00,,,0.01,weatherlink.com 1.10,2013-02-13 06:21:00,
2013-02-12 22:36:00,52.0,40.0,30.30,West,277,2.0,3.0,63,0.00,,,0.01,weatherlink.com 1.10,2013-02-13 06:36:00,
2013-02-12 22:51:00,51.9,40.0,30.30,West,262,2.0,4.0,63,0.00,,,0.01,weatherlink.com 1.10,2013-02-13 06:51:00,
2013-02-12 23:06:00,51.8,40.0,30.29,WSW,255,5.0,6.0,64,0.00,,,0.01,weatherlink.com 1.10,2013-02-13 07:06:00,
2013-02-12 23:21:00,51.5,38.0,30.29,West,264,8.0,9.0,61,0.00,,,0.01,weatherlink.com 1.10,2013-02-13 07:21:00,
2013-02-12 23:36:00,51.5,36.0,30.30,West,271,6.0,10.0,56,0.00,,,0.01,weatherlink.com 1.10,2013-02-13 07:36:00,
2013-02-12 23:51:00,51.6,36.0,30.29,West,260,7.0,10.0,55,0.00,,,0.01,weatherlink.com 1.10,2013-02-13 07:51:00,